Time,TemperatureF,DewpointF,PressureIn,WindDirection,WindDirectionDegrees,WindSpeedMPH,WindSpeedGustMPH,Humidity,HourlyPrecipIn,Conditions,Clouds,dailyrainin,SoftwareType,DateUTC
2013-06-09 00:02:00,85.6,22.8,29.87,ENE,59,2.0,4.0,10,0.00,,,0.00,meteohub,2013-06-09 06:02:00,
2013-06-09 00:07:00,85.3,22.6,29.87,ENE,59,0.0,4.0,10,0.00,,,0.00,meteohub,2013-06-09 06:07:00,
2013-06-09 00:12:00,85.3,22.6,29.87,ENE,59,0.0,3.0,10,0.00,,,0.00,meteohub,2013-06-09 06:12:00,
2013-06-09 00:17:00,85.5,22.6,29.87,East,82,2.0,5.0,10,0.00,,,0.00,meteohub,2013-06-09 06:17:00,
2013-06-09 00:22:00,85.1,22.5,29.87,East,82,3.0,5.0,10,0.00,,,0.00,meteohub,2013-06-09 06:22:00,
2013-06-09 00:27:00,84.7,22.1,29.87,East,82,1.0,5.0,10,0.00,,,0.00,meteohub,2013-06-09 06:27:00,
2013-06-09 00:32:00,84.7,22.1,29.88,East,82,1.0,5.0,10,0.00,,,0.00,meteohub,2013-06-09 06:32:00,
2013-06-09 00:37:00,85.5,22.6,29.88,East,82,2.0,5.0,10,0.00,,,0.00,meteohub,2013-06-09 06:37:00,
2013-06-09 00:42:00,85.3,22.6,29.87,SSE,147,2.0,5.0,10,0.00,,,0.00,meteohub,2013-06-09 06:42:00,
2013-06-09 00:47:00,85.8,23.0,29.87,South,186,3.0,8.0,10,0.00,,,0.00,meteohub,2013-06-09 06:47:00,
2013-06-09 00:52:00,85.6,22.8,29.87,West,261,1.0,8.0,10,0.00,,,0.00,meteohub,2013-06-09 06:52:00,
2013-06-09 00:57:00,85.5,22.6,29.87,West,262,7.0,12.0,10,0.00,,,0.00,meteohub,2013-06-09 06:57:00,
2013-06-09 01:02:00,85.8,23.0,29.87,WNW,292,5.0,12.0,10,0.00,,,0.00,meteohub,2013-06-09 07:02:00,
2013-06-09 01:07:00,86.0,23.2,29.87,NW,306,4.0,12.0,10,0.00,,,0.00,meteohub,2013-06-09 07:07:00,
2013-06-09 01:12:00,85.6,22.8,29.87,WNW,290,5.0,12.0,10,0.00,,,0.00,meteohub,2013-06-09 07:12:00,
2013-06-09 01:17:00,85.6,22.8,29.87,NW,323,3.0,9.0,10,0.00,,,0.00,meteohub,2013-06-09 07:17:00,
2013-06-09 01:22:00,84.7,24.4,29.87,NNW,344,0.0,9.0,11,0.00,,,0.00,meteohub,2013-06-09 07:22:00,
2013-06-09 01:27:00,84.0,23.9,29.88,NNW,344,0.0,9.0,11,0.00,,,0.00,meteohub,2013-06-09 07:27:00,
2013-06-09 01:32:00,83.7,23.5,29.88,NNW,344,0.0,5.0,11,0.00,,,0.00,meteohub,2013-06-09 07:32:00,
2013-06-09 01:37:00,82.9,23.0,29.88,East,84,3.0,3.0,11,0.00,,,0.00,meteohub,2013-06-09 07:37:00,
2013-06-09 01:42:00,82.6,24.8,29.88,SE,128,1.0,6.0,12,0.00,,,0.00,meteohub,2013-06-09 07:42:00,
2013-06-09 01:47:00,82.2,24.6,29.88,SSE,151,2.0,6.0,12,0.00,,,0.00,meteohub,2013-06-09 07:47:00,
2013-06-09 01:52:00,82.4,24.6,29.88,SE,138,1.0,6.0,12,0.00,,,0.00,meteohub,2013-06-09 07:52:00,
2013-06-09 01:57:00,82.2,24.6,29.88,ESE,123,4.0,6.0,12,0.00,,,0.00,meteohub,2013-06-09 07:57:00,
2013-06-09 02:02:00,82.6,24.8,29.88,ESE,123,0.0,4.0,12,0.00,,,0.00,meteohub,2013-06-09 08:02:00,
2013-06-09 02:07:00,82.2,24.6,29.88,ESE,105,5.0,5.0,12,0.00,,,0.00,meteohub,2013-06-09 08:07:00,
2013-06-09 02:12:00,81.9,24.3,29.88,ENE,65,5.0,5.0,12,0.00,,,0.00,meteohub,2013-06-09 08:12:00,
2013-06-09 02:17:00,82.0,24.4,29.88,ENE,60,2.0,5.0,12,0.00,,,0.00,meteohub,2013-06-09 08:17:00,
2013-06-09 02:22:00,82.9,25.2,29.88,NW,304,1.0,7.0,12,0.00,,,0.00,meteohub,2013-06-09 08:22:00,
2013-06-09 02:27:00,82.8,22.8,29.88,NW,306,2.0,7.0,11,0.00,,,0.00,meteohub,2013-06-09 08:27:00,
2013-06-09 02:32:00,82.4,24.6,29.88,NW,306,2.0,7.0,12,0.00,,,0.00,meteohub,2013-06-09 08:32:00,
2013-06-09 02:37:00,82.8,25.0,29.88,NNW,331,2.0,6.0,12,0.00,,,0.00,meteohub,2013-06-09 08:37:00,
2013-06-09 02:42:00,82.9,23.0,29.88,NW,318,6.0,9.0,11,0.00,,,0.00,meteohub,2013-06-09 08:42:00,
2013-06-09 02:47:00,83.5,23.4,29.88,WNW,297,1.0,9.0,11,0.00,,,0.00,meteohub,2013-06-09 08:47:00,
2013-06-09 02:52:00,83.1,23.2,29.88,NNW,344,3.0,8.0,11,0.00,,,0.00,meteohub,2013-06-09 08:52:00,
2013-06-09 02:57:00,82.8,22.8,29.88,North,0,3.0,8.0,11,0.00,,,0.00,meteohub,2013-06-09 08:57:00,
2013-06-09 03:02:00,82.2,24.6,29.88,North,9,2.0,6.0,12,0.00,,,0.00,meteohub,2013-06-09 09:02:00,
2013-06-09 03:07:00,81.9,24.3,29.88,NNE,26,3.0,6.0,12,0.00,,,0.00,meteohub,2013-06-09 09:07:00,
2013-06-09 03:12:00,81.3,23.9,29.88,NNE,26,1.0,6.0,12,0.00,,,0.00,meteohub,2013-06-09 09:12:00,
2013-06-09 03:17:00,81.7,24.1,29.88,NNE,21,3.0,6.0,12,0.00,,,0.00,meteohub,2013-06-09 09:17:00,
2013-06-09 03:22:00,81.9,24.3,29.89,NNW,344,0.0,7.0,12,0.00,,,0.00,meteohub,2013-06-09 09:22:00,
2013-06-09 03:27:00,81.7,24.1,29.88,NNW,344,0.0,7.0,12,0.00,,,0.00,meteohub,2013-06-09 09:27:00,
2013-06-09 03:32:00,81.7,24.1,29.88,NNW,344,0.0,7.0,12,0.00,,,0.00,meteohub,2013-06-09 09:32:00,
2013-06-09 03:37:00,80.8,25.3,29.88,NNW,344,0.0,0.0,13,0.00,,,0.00,meteohub,2013-06-09 09:37:00,
2013-06-09 03:42:00,80.4,25.2,29.89,NNW,344,0.0,3.0,13,0.00,,,0.00,meteohub,2013-06-09 09:42:00,
2013-06-09 03:47:00,80.1,24.8,29.89,NNW,344,0.0,3.0,13,0.00,,,0.00,meteohub,2013-06-09 09:47:00,
2013-06-09 03:52:00,79.5,26.1,29.89,NNW,344,0.0,3.0,14,0.00,,,0.00,meteohub,2013-06-09 09:52:00,
2013-06-09 03:57:00,79.5,24.4,29.90,NNW,344,1.0,1.0,13,0.00,,,0.00,meteohub,2013-06-09 09:57:00,
2013-06-09 04:02:00,79.0,23.9,29.91,NNW,344,2.0,2.0,13,0.00,,,0.00,meteohub,2013-06-09 10:02:00,
2013-06-09 04:07:00,79.2,25.9,29.90,West,270,5.0,5.0,14,0.00,,,0.00,meteohub,2013-06-09 10:07:00,
2013-06-09 04:12:00,79.7,24.4,29.91,NNW,338,3.0,10.0,13,0.00,,,0.00,meteohub,2013-06-09 10:12:00,
2013-06-09 04:17:00,80.1,24.8,29.91,NNE,29,3.0,10.0,13,0.00,,,0.00,meteohub,2013-06-09 10:17:00,
2013-06-09 04:22:00,79.9,26.4,29.91,NE,39,1.0,10.0,14,0.00,,,0.00,meteohub,2013-06-09 10:22:00,
2013-06-09 04:27:00,79.5,26.1,29.91,NE,39,2.0,8.0,14,0.00,,,0.00,meteohub,2013-06-09 10:27:00,
2013-06-09 04:32:00,79.5,26.1,29.91,WNW,298,5.0,5.0,14,0.00,,,0.00,meteohub,2013-06-09 10:32:00,
2013-06-09 04:37:00,79.2,25.9,29.91,WNW,303,5.0,7.0,14,0.00,,,0.00,meteohub,2013-06-09 10:37:00,
2013-06-09 04:42:00,79.3,26.1,29.91,NW,316,3.0,7.0,14,0.00,,,0.00,meteohub,2013-06-09 10:42:00,
2013-06-09 04:47:00,79.2,25.9,29.91,NW,316,2.0,7.0,14,0.00,,,0.00,meteohub,2013-06-09 10:47:00,
2013-06-09 04:52:00,78.3,25.2,29.91,NW,316,1.0,7.0,14,0.00,,,0.00,meteohub,2013-06-09 10:52:00,
2013-06-09 04:57:00,77.5,26.2,29.91,NW,316,0.0,4.0,15,0.00,,,0.00,meteohub,2013-06-09 10:57:00,
2013-06-09 05:02:00,76.8,25.7,29.92,NW,316,0.0,3.0,15,0.00,,,0.00,meteohub,2013-06-09 11:02:00,
2013-06-09 05:07:00,76.5,27.0,29.92,NW,316,0.0,3.0,16,0.00,,,0.00,meteohub,2013-06-09 11:07:00,
2013-06-09 05:12:00,75.9,26.4,29.92,NW,316,0.0,0.0,16,0.00,,,0.00,meteohub,2013-06-09 11:12:00,
2013-06-09 05:17:00,75.7,26.4,29.92,NW,316,1.0,2.0,16,0.00,,,0.00,meteohub,2013-06-09 11:17:00,
2013-06-09 05:22:00,75.9,26.4,29.92,NW,316,3.0,4.0,16,0.00,,,0.00,meteohub,2013-06-09 11:22:00,
2013-06-09 05:27:00,75.9,26.4,29.92,NW,313,2.0,4.0,16,0.00,,,0.00,meteohub,2013-06-09 11:27:00,
2013-06-09 05:32:00,75.9,26.4,29.93,WNW,296,4.0,5.0,16,0.00,,,0.00,meteohub,2013-06-09 11:32:00,
2013-06-09 05:37:00,75.6,26.2,29.93,WNW,296,1.0,5.0,16,0.00,,,0.00,meteohub,2013-06-09 11:37:00,
2013-06-09 05:42:00,74.8,27.1,29.93,WNW,296,1.0,5.0,17,0.00,,,0.00,meteohub,2013-06-09 11:42:00,
2013-06-09 05:47:00,74.8,27.1,29.93,WNW,296,3.0,4.0,17,0.00,,,0.00,meteohub,2013-06-09 11:47:00,
2013-06-09 05:52:00,75.2,28.8,29.93,NW,310,3.0,7.0,18,0.00,,,0.00,meteohub,2013-06-09 11:52:00,
2013-06-09 05:57:00,75.4,30.2,29.94,NW,310,4.0,7.0,19,0.00,,,0.00,meteohub,2013-06-09 11:57:00,
2013-06-09 06:02:00,75.2,31.5,29.94,NW,310,3.0,7.0,20,0.00,,,0.00,meteohub,2013-06-09 12:02:00,
2013-06-09 06:07:00,74.8,31.1,29.94,NW,307,2.0,4.0,20,0.00,,,0.00,meteohub,2013-06-09 12:07:00,
2013-06-09 06:12:00,74.5,32.0,29.94,NW,307,1.0,5.0,21,0.00,,,0.00,meteohub,2013-06-09 12:12:00,
2013-06-09 06:17:00,74.1,32.9,29.95,NW,307,1.0,5.0,22,0.00,,,0.00,meteohub,2013-06-09 12:17:00,
2013-06-09 06:22:00,73.8,32.5,29.96,NW,306,4.0,4.0,22,0.00,,,0.00,meteohub,2013-06-09 12:22:00,
2013-06-09 06:27:00,73.6,30.0,29.95,NW,306,2.0,4.0,20,0.00,,,0.00,meteohub,2013-06-09 12:27:00,
2013-06-09 06:32:00,73.2,30.9,29.95,NW,306,1.0,4.0,21,0.00,,,0.00,meteohub,2013-06-09 12:32:00,
2013-06-09 06:37:00,73.6,30.0,29.95,NW,306,1.0,4.0,20,0.00,,,0.00,meteohub,2013-06-09 12:37:00,
2013-06-09 06:42:00,73.8,30.2,29.96,NW,306,0.0,4.0,20,0.00,,,0.00,meteohub,2013-06-09 12:42:00,
2013-06-09 06:47:00,73.9,29.1,29.96,NW,306,0.0,4.0,19,0.00,,,0.00,meteohub,2013-06-09 12:47:00,
2013-06-09 06:52:00,74.1,27.9,29.96,NW,306,4.0,4.0,18,0.00,,,0.00,meteohub,2013-06-09 12:52:00,
2013-06-09 06:58:00,74.3,29.3,29.96,NW,306,1.0,4.0,19,0.00,,,0.00,meteohub,2013-06-09 12:58:00,
2013-06-09 07:04:00,74.7,28.4,29.96,NW,306,1.0,4.0,18,0.00,,,0.00,meteohub,2013-06-09 13:04:00,
2013-06-09 07:10:00,75.4,28.9,29.96,NW,306,1.0,4.0,18,0.00,,,0.00,meteohub,2013-06-09 13:10:00,
2013-06-09 07:16:00,76.3,30.9,29.97,NW,306,1.0,3.0,19,0.00,,,0.00,meteohub,2013-06-09 13:16:00,
2013-06-09 07:21:00,76.8,32.7,29.97,NW,317,2.0,4.0,20,0.00,,,0.00,meteohub,2013-06-09 13:21:00,
2013-06-09 07:27:00,75.9,32.0,29.97,NNW,340,1.0,4.0,20,0.00,,,0.00,meteohub,2013-06-09 13:27:00,
2013-06-09 07:32:00,75.7,31.8,29.97,NNW,348,1.0,2.0,20,0.00,,,0.00,meteohub,2013-06-09 13:32:00,
2013-06-09 07:37:00,75.9,32.0,29.98,NNW,348,0.0,2.0,20,0.00,,,0.00,meteohub,2013-06-09 13:37:00,
2013-06-09 07:42:00,76.5,32.4,29.98,North,350,0.0,2.0,20,0.00,,,0.00,meteohub,2013-06-09 13:42:00,
2013-06-09 07:47:00,77.2,33.1,29.99,North,0,1.0,2.0,20,0.00,,,0.00,meteohub,2013-06-09 13:47:00,
2013-06-09 07:52:00,77.7,33.4,29.99,North,5,2.0,3.0,20,0.00,,,0.00,meteohub,2013-06-09 13:52:00,
2013-06-09 07:57:00,78.3,34.0,29.99,NNE,15,3.0,3.0,20,0.00,,,0.00,meteohub,2013-06-09 13:57:00,
2013-06-09 08:02:00,78.3,34.0,29.99,NNE,24,1.0,4.0,20,0.00,,,0.00,meteohub,2013-06-09 14:02:00,
2013-06-09 08:07:00,78.6,35.4,30.00,NNE,24,2.0,4.0,21,0.00,,,0.00,meteohub,2013-06-09 14:07:00,
2013-06-09 08:12:00,79.2,35.8,30.00,NE,40,0.0,4.0,21,0.00,,,0.00,meteohub,2013-06-09 14:12:00,
2013-06-09 08:17:00,79.2,35.8,30.00,NE,40,1.0,4.0,21,0.00,,,0.00,meteohub,2013-06-09 14:17:00,
2013-06-09 08:22:00,79.5,38.5,30.01,NE,40,1.0,4.0,23,0.00,,,0.00,meteohub,2013-06-09 14:22:00,
2013-06-09 08:27:00,79.9,41.0,30.01,North,11,5.0,5.0,25,0.00,,,0.00,meteohub,2013-06-09 14:27:00,
2013-06-09 08:32:00,80.4,43.3,30.01,NW,325,6.0,6.0,27,0.00,,,0.00,meteohub,2013-06-09 14:32:00,
2013-06-09 08:37:00,80.8,44.6,30.01,NNW,334,4.0,6.0,28,0.00,,,0.00,meteohub,2013-06-09 14:37:00,
2013-06-09 08:42:00,81.0,45.7,30.01,North,350,3.0,6.0,29,0.00,,,0.00,meteohub,2013-06-09 14:42:00,
2013-06-09 08:47:00,81.7,47.3,30.01,North,355,4.0,7.0,30,0.00,,,0.00,meteohub,2013-06-09 14:47:00,
2013-06-09 08:52:00,81.9,47.3,30.01,NNE,22,6.0,8.0,30,0.00,,,0.00,meteohub,2013-06-09 14:52:00,
2013-06-09 08:57:00,82.4,46.9,30.02,ENE,67,2.0,8.0,29,0.00,,,0.00,meteohub,2013-06-09 14:57:00,
2013-06-09 09:03:00,82.6,44.2,30.02,NE,45,0.0,9.0,26,0.00,,,0.00,meteohub,2013-06-09 15:03:00,
2013-06-09 09:08:00,82.6,45.1,30.02,East,96,1.0,9.0,27,0.00,,,0.00,meteohub,2013-06-09 15:08:00,
2013-06-09 09:14:00,83.1,45.7,30.02,East,96,0.0,9.0,27,0.00,,,0.00,meteohub,2013-06-09 15:14:00,
2013-06-09 09:20:00,83.3,45.9,30.02,SSE,163,1.0,6.0,27,0.00,,,0.00,meteohub,2013-06-09 15:20:00,
2013-06-09 09:26:00,83.3,47.7,30.02,NW,311,3.0,7.0,29,0.00,,,0.00,meteohub,2013-06-09 15:26:00,
2013-06-09 09:32:00,83.8,48.2,30.02,North,355,1.0,7.0,29,0.00,,,0.00,meteohub,2013-06-09 15:32:00,
2013-06-09 09:37:00,84.7,47.1,30.02,East,95,3.0,7.0,27,0.00,,,0.00,meteohub,2013-06-09 15:37:00,
2013-06-09 09:42:00,84.2,47.5,30.02,SE,130,1.0,5.0,28,0.00,,,0.00,meteohub,2013-06-09 15:42:00,
2013-06-09 09:47:00,85.8,46.9,30.02,SE,144,3.0,4.0,26,0.00,,,0.00,meteohub,2013-06-09 15:47:00,
2013-06-09 09:52:00,85.3,45.5,30.02,ESE,107,4.0,4.0,25,0.00,,,0.00,meteohub,2013-06-09 15:52:00,
2013-06-09 09:57:00,86.0,46.0,30.02,SSE,147,1.0,5.0,25,0.00,,,0.00,meteohub,2013-06-09 15:57:00,
2013-06-09 10:02:00,86.5,45.5,30.02,SSE,147,0.0,6.0,24,0.00,,,0.00,meteohub,2013-06-09 16:02:00,
2013-06-09 10:07:00,86.7,44.4,30.02,SSE,168,0.0,6.0,23,0.00,,,0.00,meteohub,2013-06-09 16:07:00,
2013-06-09 10:12:00,86.9,44.6,30.02,South,186,0.0,6.0,23,0.00,,,0.00,meteohub,2013-06-09 16:12:00,
2013-06-09 10:17:00,87.8,46.6,30.02,South,186,0.0,5.0,24,0.00,,,0.00,meteohub,2013-06-09 16:17:00,
2013-06-09 10:22:00,88.9,45.1,30.02,WSW,250,2.0,5.0,22,0.00,,,0.00,meteohub,2013-06-09 16:22:00,
2013-06-09 10:27:00,88.2,45.7,30.02,WNW,299,4.0,5.0,23,0.00,,,0.00,meteohub,2013-06-09 16:27:00,
2013-06-09 10:32:00,88.0,45.5,30.02,WNW,299,0.0,5.0,23,0.00,,,0.00,meteohub,2013-06-09 16:32:00,
2013-06-09 10:37:00,88.9,45.1,30.02,WSW,252,4.0,5.0,22,0.00,,,0.00,meteohub,2013-06-09 16:37:00,
2013-06-09 10:42:00,89.4,45.5,30.02,WSW,250,2.0,5.0,22,0.00,,,0.00,meteohub,2013-06-09 16:42:00,
2013-06-09 10:47:00,90.0,44.8,30.02,WSW,250,1.0,5.0,21,0.00,,,0.00,meteohub,2013-06-09 16:47:00,
2013-06-09 10:52:00,90.5,45.3,30.02,ESE,118,4.0,5.0,21,0.00,,,0.00,meteohub,2013-06-09 16:52:00,
2013-06-09 10:57:00,91.8,46.2,30.02,ESE,107,3.0,7.0,21,0.00,,,0.00,meteohub,2013-06-09 16:57:00,
2013-06-09 11:02:00,91.2,44.6,30.02,East,87,3.0,9.0,20,0.00,,,0.00,meteohub,2013-06-09 17:02:00,
2013-06-09 11:07:00,91.6,44.8,30.02,SE,143,6.0,10.0,20,0.00,,,0.00,meteohub,2013-06-09 17:07:00,
2013-06-09 11:12:00,91.6,44.8,30.02,ENE,63,7.0,10.0,20,0.00,,,0.00,meteohub,2013-06-09 17:12:00,
2013-06-09 11:17:00,92.5,44.2,30.03,East,86,6.0,10.0,19,0.00,,,0.00,meteohub,2013-06-09 17:17:00,
2013-06-09 11:22:00,91.6,44.8,30.02,ENE,59,5.0,10.0,20,0.00,,,0.00,meteohub,2013-06-09 17:22:00,
2013-06-09 11:27:00,91.9,45.1,30.02,ENE,76,1.0,10.0,20,0.00,,,0.00,meteohub,2013-06-09 17:27:00,
2013-06-09 11:32:00,92.5,45.5,30.02,ENE,61,3.0,10.0,20,0.00,,,0.00,meteohub,2013-06-09 17:32:00,
2013-06-09 11:37:00,91.9,45.1,30.02,ENE,61,0.0,7.0,20,0.00,,,0.00,meteohub,2013-06-09 17:37:00,
2013-06-09 11:42:00,91.8,45.0,30.02,NE,39,2.0,7.0,20,0.00,,,0.00,meteohub,2013-06-09 17:42:00,
2013-06-09 11:47:00,92.7,45.7,30.02,SSE,160,8.0,8.0,20,0.00,,,0.00,meteohub,2013-06-09 17:47:00,
2013-06-09 11:52:00,92.5,44.2,30.02,South,190,5.0,9.0,19,0.00,,,0.00,meteohub,2013-06-09 17:52:00,
2013-06-09 11:58:00,93.4,45.0,30.02,SSW,213,3.0,9.0,19,0.00,,,0.00,meteohub,2013-06-09 17:58:00,
2013-06-09 12:04:00,94.5,44.4,30.02,ENE,68,4.0,9.0,18,0.00,,,0.00,meteohub,2013-06-09 18:04:00,
2013-06-09 12:10:00,94.5,45.9,30.02,ENE,64,3.0,7.0,19,0.00,,,0.00,meteohub,2013-06-09 18:10:00,
2013-06-09 12:15:00,94.6,46.0,30.02,ESE,121,4.0,9.0,19,0.00,,,0.00,meteohub,2013-06-09 18:15:00,
2013-06-09 12:21:00,93.7,45.3,30.02,NE,49,2.0,9.0,19,0.00,,,0.00,meteohub,2013-06-09 18:21:00,
2013-06-09 12:27:00,94.5,44.4,30.02,ESE,116,0.0,9.0,18,0.00,,,0.00,meteohub,2013-06-09 18:27:00,
2013-06-09 12:32:00,95.7,45.5,30.01,SW,217,3.0,9.0,18,0.00,,,0.00,meteohub,2013-06-09 18:32:00,
2013-06-09 12:37:00,95.4,45.1,30.01,SSW,193,7.0,8.0,18,0.00,,,0.00,meteohub,2013-06-09 18:37:00,
2013-06-09 12:43:00,95.2,43.5,30.01,South,169,3.0,11.0,17,0.00,,,0.00,meteohub,2013-06-09 18:43:00,
2013-06-09 12:49:00,95.5,45.3,30.01,East,92,3.0,11.0,18,0.00,,,0.00,meteohub,2013-06-09 18:49:00,
2013-06-09 12:54:00,96.4,46.0,30.01,ENE,73,4.0,11.0,18,0.00,,,0.00,meteohub,2013-06-09 18:54:00,
2013-06-09 13:00:00,95.0,44.8,30.01,ESE,119,8.0,10.0,18,0.00,,,0.00,meteohub,2013-06-09 19:00:00,
2013-06-09 13:06:00,96.4,44.6,30.01,East,92,2.0,10.0,17,0.00,,,0.00,meteohub,2013-06-09 19:06:00,
2013-06-09 13:12:00,95.7,43.9,30.01,South,173,4.0,10.0,17,0.00,,,0.00,meteohub,2013-06-09 19:12:00,
2013-06-09 13:17:00,95.5,43.7,30.01,WNW,293,1.0,11.0,17,0.00,,,0.00,meteohub,2013-06-09 19:17:00,
2013-06-09 13:22:00,97.3,45.3,30.01,South,182,3.0,11.0,17,0.00,,,0.00,meteohub,2013-06-09 19:22:00,
2013-06-09 13:27:00,97.5,45.3,30.01,SE,146,12.0,12.0,17,0.00,,,0.00,meteohub,2013-06-09 19:27:00,
2013-06-09 13:32:00,97.2,45.1,30.00,WSW,245,5.0,12.0,17,0.00,,,0.00,meteohub,2013-06-09 19:32:00,
2013-06-09 13:37:00,97.5,43.7,30.00,WNW,285,2.0,12.0,16,0.00,,,0.00,meteohub,2013-06-09 19:37:00,
2013-06-09 13:42:00,98.8,44.8,30.00,SSE,159,4.0,12.0,16,0.00,,,0.00,meteohub,2013-06-09 19:42:00,
2013-06-09 13:47:00,99.3,43.5,30.00,South,175,10.0,11.0,15,0.00,,,0.00,meteohub,2013-06-09 19:47:00,
2013-06-09 13:52:00,98.6,43.0,30.00,SW,234,3.0,11.0,15,0.00,,,0.00,meteohub,2013-06-09 19:52:00,
2013-06-09 13:57:00,99.0,45.0,29.99,East,84,6.0,11.0,16,0.00,,,0.00,meteohub,2013-06-09 19:57:00,
2013-06-09 14:02:00,98.8,43.2,29.99,SSE,163,4.0,10.0,15,0.00,,,0.00,meteohub,2013-06-09 20:02:00,
2013-06-09 14:07:00,97.5,43.7,29.99,NE,38,3.0,10.0,16,0.00,,,0.00,meteohub,2013-06-09 20:07:00,
2013-06-09 14:12:00,98.4,44.4,29.99,East,84,6.0,10.0,16,0.00,,,0.00,meteohub,2013-06-09 20:12:00,
2013-06-09 14:17:00,99.3,43.5,29.99,East,101,6.0,9.0,15,0.00,,,0.00,meteohub,2013-06-09 20:17:00,
2013-06-09 14:22:00,99.5,43.7,29.99,ESE,123,7.0,16.0,15,0.00,,,0.00,meteohub,2013-06-09 20:22:00,
2013-06-09 14:27:00,99.1,43.3,29.99,ESE,121,7.0,16.0,15,0.00,,,0.00,meteohub,2013-06-09 20:27:00,
2013-06-09 14:32:00,99.0,43.2,29.99,SE,134,3.0,16.0,15,0.00,,,0.00,meteohub,2013-06-09 20:32:00,
2013-06-09 14:37:00,99.5,41.9,29.99,NE,46,4.0,14.0,14,0.00,,,0.00,meteohub,2013-06-09 20:37:00,
2013-06-09 14:42:00,99.5,43.7,29.99,NE,45,1.0,12.0,15,0.00,,,0.00,meteohub,2013-06-09 20:42:00,
2013-06-09 14:47:00,99.9,42.1,29.99,ENE,71,5.0,10.0,14,0.00,,,0.00,meteohub,2013-06-09 20:47:00,
2013-06-09 14:52:00,100.8,41.0,29.98,NNE,17,6.0,9.0,13,0.00,,,0.00,meteohub,2013-06-09 20:52:00,
2013-06-09 14:57:00,100.0,40.5,29.98,NNE,30,2.0,9.0,13,0.00,,,0.00,meteohub,2013-06-09 20:57:00,
2013-06-09 15:02:00,99.9,43.9,29.98,East,79,6.0,9.0,15,0.00,,,0.00,meteohub,2013-06-09 21:02:00,
2013-06-09 15:07:00,100.6,42.8,29.98,East,81,9.0,9.0,14,0.00,,,0.00,meteohub,2013-06-09 21:07:00,
2013-06-09 15:12:00,99.5,41.9,29.98,ENE,74,5.0,11.0,14,0.00,,,0.00,meteohub,2013-06-09 21:12:00,
2013-06-09 15:17:00,99.0,41.4,29.98,SSE,148,4.0,13.0,14,0.00,,,0.00,meteohub,2013-06-09 21:17:00,
2013-06-09 15:22:00,99.5,41.9,29.97,NE,39,1.0,13.0,14,0.00,,,0.00,meteohub,2013-06-09 21:22:00,
2013-06-09 15:27:00,99.9,42.1,29.97,SE,128,4.0,13.0,14,0.00,,,0.00,meteohub,2013-06-09 21:27:00,
2013-06-09 15:32:00,99.7,42.1,29.97,SSE,147,3.0,7.0,14,0.00,,,0.00,meteohub,2013-06-09 21:32:00,
2013-06-09 15:37:00,100.6,42.8,29.97,East,86,8.0,8.0,14,0.00,,,0.00,meteohub,2013-06-09 21:37:00,
2013-06-09 15:42:00,100.6,42.8,29.97,East,82,7.0,11.0,14,0.00,,,0.00,meteohub,2013-06-09 21:42:00,
2013-06-09 15:47:00,100.4,44.4,29.96,ESE,109,8.0,12.0,15,0.00,,,0.00,meteohub,2013-06-09 21:47:00,
2013-06-09 15:52:00,100.2,42.4,29.96,ESE,108,5.0,12.0,14,0.00,,,0.00,meteohub,2013-06-09 21:52:00,
2013-06-09 15:57:00,99.9,43.9,29.96,ESE,103,5.0,12.0,15,0.00,,,0.00,meteohub,2013-06-09 21:57:00,
2013-06-09 16:02:00,100.0,42.3,29.96,ESE,115,4.0,11.0,14,0.00,,,0.00,meteohub,2013-06-09 22:02:00,
2013-06-09 16:07:00,99.9,42.1,29.96,WSW,257,4.0,9.0,14,0.00,,,0.00,meteohub,2013-06-09 22:07:00,
2013-06-09 16:12:00,99.5,41.9,29.96,SE,141,0.0,8.0,14,0.00,,,0.00,meteohub,2013-06-09 22:12:00,
2013-06-09 16:17:00,99.5,41.9,29.96,SE,141,1.0,8.0,14,0.00,,,0.00,meteohub,2013-06-09 22:17:00,
2013-06-09 16:22:00,101.1,41.2,29.96,NNE,21,6.0,8.0,13,0.00,,,0.00,meteohub,2013-06-09 22:22:00,
2013-06-09 16:27:00,100.8,41.0,29.96,ESE,123,7.0,9.0,13,0.00,,,0.00,meteohub,2013-06-09 22:27:00,
2013-06-09 16:32:00,100.6,40.8,29.96,NE,53,2.0,9.0,13,0.00,,,0.00,meteohub,2013-06-09 22:32:00,
2013-06-09 16:37:00,100.8,41.0,29.96,NNE,22,8.0,10.0,13,0.00,,,0.00,meteohub,2013-06-09 22:37:00,
2013-06-09 16:42:00,101.5,41.5,29.96,NE,42,10.0,10.0,13,0.00,,,0.00,meteohub,2013-06-09 22:42:00,
2013-06-09 16:47:00,101.7,39.6,29.96,NE,48,1.0,10.0,12,0.00,,,0.00,meteohub,2013-06-09 22:47:00,
2013-06-09 16:52:00,100.9,41.0,29.96,ENE,73,1.0,10.0,13,0.00,,,0.00,meteohub,2013-06-09 22:52:00,
2013-06-09 16:57:00,100.9,41.0,29.96,ESE,112,1.0,10.0,13,0.00,,,0.00,meteohub,2013-06-09 22:57:00,
2013-06-09 17:02:00,101.5,39.4,29.95,SSE,155,4.0,8.0,12,0.00,,,0.00,meteohub,2013-06-09 23:02:00,
2013-06-09 17:07:00,100.8,41.0,29.95,SSE,155,5.0,7.0,13,0.00,,,0.00,meteohub,2013-06-09 23:07:00,
2013-06-09 17:12:00,101.1,41.2,29.95,NE,47,5.0,7.0,13,0.00,,,0.00,meteohub,2013-06-09 23:12:00,
2013-06-09 17:17:00,101.3,43.3,29.95,NE,44,2.0,7.0,14,0.00,,,0.00,meteohub,2013-06-09 23:17:00,
2013-06-09 17:22:00,101.5,41.5,29.95,ESE,117,3.0,7.0,13,0.00,,,0.00,meteohub,2013-06-09 23:22:00,
2013-06-09 17:27:00,100.8,41.0,29.94,SSE,154,0.0,7.0,13,0.00,,,0.00,meteohub,2013-06-09 23:27:00,
2013-06-09 17:32:00,100.6,40.8,29.94,NNE,27,6.0,6.0,13,0.00,,,0.00,meteohub,2013-06-09 23:32:00,
2013-06-09 17:37:00,100.4,40.6,29.94,NE,38,2.0,9.0,13,0.00,,,0.00,meteohub,2013-06-09 23:37:00,
2013-06-09 17:42:00,100.2,40.5,29.94,ESE,107,5.0,12.0,13,0.00,,,0.00,meteohub,2013-06-09 23:42:00,
2013-06-09 17:47:00,99.7,42.1,29.94,SE,128,6.0,12.0,14,0.00,,,0.00,meteohub,2013-06-09 23:47:00,
2013-06-09 17:52:00,99.3,43.5,29.94,SE,132,6.0,13.0,15,0.00,,,0.00,meteohub,2013-06-09 23:52:00,
2013-06-09 17:57:00,99.3,43.5,29.94,SE,141,7.0,13.0,15,0.00,,,0.00,meteohub,2013-06-09 23:57:00,
2013-06-09 18:02:00,99.0,43.2,29.94,SE,127,7.0,11.0,15,0.00,,,0.00,meteohub,2013-06-10 00:02:00,
2013-06-09 18:07:00,98.8,44.8,29.94,East,99,5.0,11.0,16,0.00,,,0.00,meteohub,2013-06-10 00:07:00,
2013-06-09 18:12:00,98.6,46.2,29.94,ESE,123,7.0,13.0,17,0.00,,,0.00,meteohub,2013-06-10 00:12:00,
2013-06-09 18:17:00,98.6,44.6,29.94,SSE,156,5.0,13.0,16,0.00,,,0.00,meteohub,2013-06-10 00:17:00,
2013-06-09 18:22:00,98.8,43.2,29.93,SE,132,5.0,13.0,15,0.00,,,0.00,meteohub,2013-06-10 00:22:00,
2013-06-09 18:27:00,98.4,44.4,29.93,ESE,113,8.0,10.0,16,0.00,,,0.00,meteohub,2013-06-10 00:27:00,
2013-06-09 18:32:00,98.4,44.4,29.93,ESE,118,7.0,9.0,16,0.00,,,0.00,meteohub,2013-06-10 00:32:00,
2013-06-09 18:37:00,98.1,45.9,29.94,ESE,119,2.0,11.0,17,0.00,,,0.00,meteohub,2013-06-10 00:37:00,
2013-06-09 18:42:00,97.5,45.3,29.94,ESE,114,4.0,11.0,17,0.00,,,0.00,meteohub,2013-06-10 00:42:00,
2013-06-09 18:48:00,97.5,46.9,29.94,East,88,5.0,11.0,18,0.00,,,0.00,meteohub,2013-06-10 00:48:00,
2013-06-09 18:54:00,97.5,48.4,29.94,ESE,111,4.0,10.0,19,0.00,,,0.00,meteohub,2013-06-10 00:54:00,
2013-06-09 18:59:00,96.8,49.1,29.94,SE,145,4.0,10.0,20,0.00,,,0.00,meteohub,2013-06-10 00:59:00,
2013-06-09 19:05:00,96.4,50.2,29.94,SE,135,4.0,11.0,21,0.00,,,0.00,meteohub,2013-06-10 01:05:00,
2013-06-09 19:11:00,96.1,51.1,29.94,SE,127,8.0,13.0,22,0.00,,,0.00,meteohub,2013-06-10 01:11:00,
2013-06-09 19:17:00,95.7,50.7,29.94,SE,128,3.0,15.0,22,0.00,,,0.00,meteohub,2013-06-10 01:17:00,
2013-06-09 19:22:00,95.9,50.9,29.94,SE,132,6.0,15.0,22,0.00,,,0.00,meteohub,2013-06-10 01:22:00,
2013-06-09 19:27:00,95.9,50.9,29.94,SE,136,10.0,13.0,22,0.00,,,0.00,meteohub,2013-06-10 01:27:00,
2013-06-09 19:32:00,95.7,52.0,29.94,SE,128,6.0,14.0,23,0.00,,,0.00,meteohub,2013-06-10 01:32:00,
2013-06-09 19:37:00,95.4,51.6,29.94,SE,128,7.0,14.0,23,0.00,,,0.00,meteohub,2013-06-10 01:37:00,
2013-06-09 19:42:00,95.2,51.6,29.95,SE,125,10.0,14.0,23,0.00,,,0.00,meteohub,2013-06-10 01:42:00,
2013-06-09 19:47:00,95.0,51.4,29.95,ESE,121,9.0,14.0,23,0.00,,,0.00,meteohub,2013-06-10 01:47:00,
2013-06-09 19:52:00,94.8,51.3,29.95,ESE,102,7.0,14.0,23,0.00,,,0.00,meteohub,2013-06-10 01:52:00,
2013-06-09 19:57:00,94.6,51.1,29.95,ESE,120,8.0,14.0,23,0.00,,,0.00,meteohub,2013-06-10 01:57:00,
2013-06-09 20:02:00,94.3,50.7,29.95,ESE,123,8.0,13.0,23,0.00,,,0.00,meteohub,2013-06-10 02:02:00,
2013-06-09 20:07:00,93.7,50.4,29.95,ESE,122,4.0,13.0,23,0.00,,,0.00,meteohub,2013-06-10 02:07:00,
2013-06-09 20:12:00,93.6,50.2,29.95,SE,126,9.0,12.0,23,0.00,,,0.00,meteohub,2013-06-10 02:12:00,
2013-06-09 20:17:00,93.4,51.3,29.95,ESE,119,8.0,13.0,24,0.00,,,0.00,meteohub,2013-06-10 02:17:00,
2013-06-09 20:22:00,93.0,50.9,29.96,SE,136,8.0,13.0,24,0.00,,,0.00,meteohub,2013-06-10 02:22:00,
2013-06-09 20:27:00,92.8,50.7,29.96,SE,124,7.0,13.0,24,0.00,,,0.00,meteohub,2013-06-10 02:27:00,
2013-06-09 20:32:00,92.8,50.7,29.96,SE,126,7.0,12.0,24,0.00,,,0.00,meteohub,2013-06-10 02:32:00,
2013-06-09 20:37:00,92.7,49.5,29.96,ESE,109,8.0,13.0,23,0.00,,,0.00,meteohub,2013-06-10 02:37:00,
2013-06-09 20:42:00,92.5,49.3,29.96,ESE,119,11.0,13.0,23,0.00,,,0.00,meteohub,2013-06-10 02:42:00,
2013-06-09 20:47:00,92.3,49.1,29.96,ESE,123,8.0,13.0,23,0.00,,,0.00,meteohub,2013-06-10 02:47:00,
2013-06-09 20:52:00,92.1,48.9,29.96,SE,132,6.0,13.0,23,0.00,,,0.00,meteohub,2013-06-10 02:52:00,
2013-06-09 20:57:00,91.9,48.9,29.96,SE,132,5.0,13.0,23,0.00,,,0.00,meteohub,2013-06-10 02:57:00,
2013-06-09 21:02:00,91.9,48.9,29.96,SE,125,7.0,13.0,23,0.00,,,0.00,meteohub,2013-06-10 03:02:00,
2013-06-09 21:07:00,91.6,48.6,29.96,SE,128,5.0,14.0,23,0.00,,,0.00,meteohub,2013-06-10 03:07:00,
2013-06-09 21:12:00,91.6,48.6,29.97,SE,127,6.0,14.0,23,0.00,,,0.00,meteohub,2013-06-10 03:12:00,
2013-06-09 21:17:00,91.6,48.6,29.97,ESE,122,11.0,14.0,23,0.00,,,0.00,meteohub,2013-06-10 03:17:00,
2013-06-09 21:22:00,91.2,48.2,29.97,ESE,110,9.0,14.0,23,0.00,,,0.00,meteohub,2013-06-10 03:22:00,
2013-06-09 21:27:00,91.2,48.2,29.97,SSE,148,7.0,13.0,23,0.00,,,0.00,meteohub,2013-06-10 03:27:00,
2013-06-09 21:32:00,91.2,48.2,29.97,ESE,110,10.0,13.0,23,0.00,,,0.00,meteohub,2013-06-10 03:32:00,
2013-06-09 21:37:00,91.2,48.2,29.98,SE,126,8.0,18.0,23,0.00,,,0.00,meteohub,2013-06-10 03:37:00,
2013-06-09 21:42:00,91.0,48.0,29.98,SE,144,2.0,18.0,23,0.00,,,0.00,meteohub,2013-06-10 03:42:00,
2013-06-09 21:47:00,90.9,48.0,29.98,ESE,119,4.0,18.0,23,0.00,,,0.00,meteohub,2013-06-10 03:47:00,
2013-06-09 21:52:00,90.3,48.6,29.98,SE,124,3.0,12.0,24,0.00,,,0.00,meteohub,2013-06-10 03:52:00,
2013-06-09 21:57:00,90.1,48.6,29.98,SE,128,2.0,11.0,24,0.00,,,0.00,meteohub,2013-06-10 03:57:00,
2013-06-09 22:01:00,90.0,48.4,29.98,ESE,121,5.0,8.0,24,0.00,,,0.00,meteohub,2013-06-10 04:01:00,
2013-06-09 22:02:00,90.0,48.4,29.98,SE,132,6.0,8.0,24,0.00,,,0.00,meteohub,2013-06-10 04:02:00,
2013-06-09 22:03:00,90.0,48.4,29.99,SE,126,3.0,8.0,24,0.00,,,0.00,meteohub,2013-06-10 04:03:00,
2013-06-09 22:04:00,90.0,48.4,29.98,SE,126,2.0,8.0,24,0.00,,,0.00,meteohub,2013-06-10 04:04:00,
2013-06-09 22:10:00,89.4,48.9,29.99,SE,135,4.0,8.0,25,0.00,,,0.00,meteohub,2013-06-10 04:10:00,
2013-06-09 22:15:00,89.2,48.7,29.99,SE,130,2.0,8.0,25,0.00,,,0.00,meteohub,2013-06-10 04:15:00,
2013-06-09 22:20:00,89.2,48.7,29.99,SE,143,3.0,6.0,25,0.00,,,0.00,meteohub,2013-06-10 04:20:00,
2013-06-09 22:26:00,89.1,47.7,29.99,SE,138,5.0,7.0,24,0.00,,,0.00,meteohub,2013-06-10 04:26:00,
2013-06-09 22:32:00,89.1,46.4,29.99,SE,132,11.0,11.0,23,0.00,,,0.00,meteohub,2013-06-10 04:32:00,
2013-06-09 22:37:00,89.2,46.6,29.99,SE,131,5.0,11.0,23,0.00,,,0.00,meteohub,2013-06-10 04:37:00,
2013-06-09 22:42:00,89.2,46.6,29.99,SE,142,7.0,11.0,23,0.00,,,0.00,meteohub,2013-06-10 04:42:00,
2013-06-09 22:47:00,89.4,46.8,29.99,SE,132,8.0,11.0,23,0.00,,,0.00,meteohub,2013-06-10 04:47:00,
2013-06-09 22:52:00,89.4,45.5,30.00,SE,128,7.0,11.0,22,0.00,,,0.00,meteohub,2013-06-10 04:52:00,
2013-06-09 22:57:00,89.2,45.5,30.00,ESE,118,7.0,12.0,22,0.00,,,0.00,meteohub,2013-06-10 04:57:00,
2013-06-09 23:02:00,89.2,46.6,30.00,SSE,147,12.0,12.0,23,0.00,,,0.00,meteohub,2013-06-10 05:02:00,
2013-06-09 23:07:00,89.2,47.7,30.00,SE,142,7.0,19.0,24,0.00,,,0.00,meteohub,2013-06-10 05:07:00,
2013-06-09 23:12:00,89.1,47.7,30.00,SE,132,12.0,19.0,24,0.00,,,0.00,meteohub,2013-06-10 05:12:00,
2013-06-09 23:17:00,88.9,48.6,30.00,SSE,154,7.0,19.0,25,0.00,,,0.00,meteohub,2013-06-10 05:17:00,
2013-06-09 23:22:00,88.3,49.1,30.00,SE,132,10.0,18.0,26,0.00,,,0.00,meteohub,2013-06-10 05:22:00,
2013-06-09 23:27:00,88.0,48.7,30.00,SE,130,11.0,18.0,26,0.00,,,0.00,meteohub,2013-06-10 05:27:00,
2013-06-09 23:32:00,87.6,49.5,30.00,SE,126,11.0,20.0,27,0.00,,,0.00,meteohub,2013-06-10 05:32:00,
2013-06-09 23:37:00,87.4,49.3,30.00,SE,137,10.0,20.0,27,0.00,,,0.00,meteohub,2013-06-10 05:37:00,
2013-06-09 23:42:00,87.3,50.2,30.00,SSE,159,9.0,20.0,28,0.00,,,0.00,meteohub,2013-06-10 05:42:00,
2013-06-09 23:47:00,87.1,50.0,30.00,SE,138,10.0,18.0,28,0.00,,,0.00,meteohub,2013-06-10 05:47:00,
2013-06-09 23:52:00,86.9,49.8,30.00,SE,130,9.0,19.0,28,0.00,,,0.00,meteohub,2013-06-10 05:52:00,
2013-06-09 23:57:00,86.7,49.6,30.00,SSE,154,10.0,24.0,28,0.00,,,0.00,meteohub,2013-06-10 05:57:00,